Regional Weather Roundup
Issued by NWS Columbia, SC

Home | Current Version | Previous Version | Text Only | Print | Product List | Glossary On
Versions: 1 2 3 4 5 6 7 8 9 10 11 12 13 14 15 16 17 18 19 20 21 22 23 24 25 26 27 28 29 30 31 32 33 34 35 36 37 38 39 40 41 42 43 44 45 46 47 48 49 50
000
ASUS42 KCAE 270710
RWRCAE
REGIONAL WEATHER ROUNDUP
NATIONAL WEATHER SERVICE COLUMBIA SC
300 AM EDT FRI MAR 27 2015

NOTE: "FAIR" INDICATES FEW OR NO CLOUDS BELOW 12,000 FEET WITH NO
SIGNIFICANT WEATHER AND/OR OBSTRUCTIONS TO VISIBILITY.

NOT ALL STATIONS ARE QUALITY CONTROLLED BY THE NATIONAL
WEATHER SERVICE. USE DATA WITH CAUTION...ESPECIALLY
DEWPOINT OBSERVATIONS.

SCZ001>056-GAZ040-063>065-077-270800-
...UPSTATE SOUTH CAROLINA...

CITY           SKY/WX    TMP DP  RH WIND       PRES   REMARKS
ANDERSON       CLOUDY    61  57  87 SW5       29.69F
LIBERTY        CLOUDY    61  55  81 SW3       29.68F
SPARTANBURG    MOCLDY    63  59  88 W5        29.68F
CLEMSON        CLOUDY    64  51  62 W6        29.70F
GREENVILLE     CLOUDY    62  56  80 SW5       29.69F
GREENWOOD      CLOUDY    62  58  86 SW6       29.70F
GREER          CLOUDY    62  57  83 CALM      29.68F
ROCK HILL      PTCLDY    60  56  86 S6        29.69F
CHESTER        PTSUNNY   63  57  82 S5        29.70F
LAURENS        PTSUNNY   61  61 100 SW8       29.68F


...CENTRAL SOUTH CAROLINA...

CITY           SKY/WX    TMP DP  RH WIND       PRES   REMARKS
COLUMBIA APT   CLOUDY    66  57  72 SW7       29.70F
COLUMBIA OWENS CLOUDY    67  57  70 SW8       29.72F
DARLINGTON     CLOUDY    66  57  72 SW10      29.72F
FLORENCE       CLOUDY    66  58  75 S8        29.71F
MCENTIRE ANGB  CLOUDY    66  58  77 SW7       29.72F
ORANGEBURG     CLOUDY    67  58  72 SW10      29.73F
SUMTER SHAW    CLOUDY    65  59  79 SW9       29.70F
NEWBERRY       CLOUDY    61  57  88 SW6       29.72F
AIKEN          PTSUNNY   63  55  77 SW7       29.74F
BARNWELL       FAIR      64  61  88 S6        29.73F
MANNING        CLOUDY    63  59  88 S3        29.73F
CAMDEN         FAIR      66  57  72 CALM      29.72F
LANCASTER      PTSUNNY   61  59  94 SW6       29.71F
WINNSBORO      CLOUDY    61  57  88 S6        29.71F


...EASTERN AND COASTAL SOUTH CAROLINA...

CITY           SKY/WX    TMP DP  RH WIND       PRES   REMARKS
MYRTLE BEACH   CLOUDY    64  61  88 SW7       29.76F
N MYRTLE BCH   LGT RAIN  64  61  90 W7        29.74F
CONWAY         LGT RAIN  63  59  88 S3        29.74F
MARION         CLOUDY    64  55  72 SW6       29.73F
HARTSVILLE     CLOUDY    64  59  82 SW6       29.72F
FLORENCE       CLOUDY    66  58  75 S8        29.71F
DARLINGTON     CLOUDY    66  57  72 SW10      29.72F
CHARLESTON APT LGT RAIN  64  63  94 SW8       29.74F
MOUNT PLEASANT PTSUNNY   64  64 100 CALM      29.73F
WALTERBORO     CLOUDY    63  63 100 SW5       29.75F
BEAUFORT       CLOUDY    65  63  93 W5        29.75F


...EASTERN GEORGIA...

CITY           SKY/WX    TMP DP  RH WIND       PRES   REMARKS
AUGUSTA BUSH F CLOUDY    64  59  83 SW8       29.71F
AUGUSTA DANIEL CLOUDY    65  59  81 SW6       29.72F
THOMSON        CLOUDY    65  64  93 SW5       29.75F
WASHINGTON     LGT RAIN  66  66 100 SW5       29.70F
CLAXTON        FAIR      63  63 100 W3        29.77F
SYLVANIA       CLOUDY    64  63  97 W5        29.75F
STATESBORO     CLOUDY    64  64 100 SW5       29.75F
SAVANNAH       CLOUDY    66  63  90 SW9       29.76F


...SOUTHERN NORTH CAROLINA...

CITY           SKY/WX    TMP DP  RH WIND       PRES   REMARKS
CHARLOTTE      CLOUDY    62  55  77 SW6       29.69F
MONROE         MOCLDY    63  56  78 SW9       29.69F
WADESBORO      PTSUNNY   64  56  76 S5        29.70F
ROCKINGHAM       N/A     65  59  81 S8        29.70F
RUTHERFORDTON  CLOUDY    58  47  67 N3        29.72S
ASHEVILLE      LGT RAIN  46  42  86 N17       29.77F

$$



USA.gov is the U.S. government's official web portal to all federal, state and local government web resources and services.